Waarnemingen

Advertentie
Mijn weer
St-Etienne Boutheon, Frankrijk (7475): temperatuur & dauwpunt: 14.05.2019 06:00:00 - 20.05.2019 06:00:00 (CEST)St-Etienne Boutheon, Frankrijk (7475): temperatuur 5cm: 14.05.2019 06:00:00 - 20.05.2019 06:00:00 (CEST)St-Etienne Boutheon, Frankrijk (7475): temperatuur -20cm & temperatuur -100cm: 14.05.2019 06:00:00 - 20.05.2019 06:00:00 (CEST)St-Etienne Boutheon, Frankrijk (7475): windsnelheid & windstoten: 14.05.2019 06:00:00 - 20.05.2019 06:00:00 (CEST)St-Etienne Boutheon, Frankrijk (7475): windrichting: 14.05.2019 06:00:00 - 20.05.2019 06:00:00 (CEST)St-Etienne Boutheon, Frankrijk (7475): luchtdruk: 14.05.2019 06:00:00 - 20.05.2019 06:00:00 (CEST)St-Etienne Boutheon, Frankrijk (7475): zicht: 14.05.2019 06:00:00 - 20.05.2019 06:00:00 (CEST)St-Etienne Boutheon, Frankrijk (7475): Zonneschijnduur: 14.05.2019 06:00:00 - 20.05.2019 06:00:00 (CEST)St-Etienne Boutheon, Frankrijk (7475): neerslag: 14.05.2019 06:00:00 - 20.05.2019 06:00:00 (CEST)
Datum & Tijd tt [°C] td [°C] tt 5cm [°C] tt -20cm [°C] tt -100cm [°C] ff [km/u] ff [kn] fx [km/u] fx [kn] dd ppp [hPa] vv [km] sd [min] rr [mm]
20.05.2019 06:00:00 10,9 9,7 10,4 13,7 12,5 3 1 13 7 N 1009,0 9 0 0,0
20.05.2019 05:00:00 11,0 9,9 10,3 13,8 12,5 8 4 15 8 NNO 1008,6 9 0 0,0
20.05.2019 04:00:00 10,7 9,9 10,1 14,0 12,5 3 2 7 4 NNO 1008,7 6 0 0,2
20.05.2019 03:00:00 10,9 10,1 10,4 14,1 12,5 4 2 19 10 N 1008,9 5 0 2,8
20.05.2019 02:00:00 11,7 9,6 10,9 14,2 12,5 13 7 24 13 N 1009,0 4,4 0 0,4
20.05.2019 01:00:00 12,3 8,8 11,6 14,4 12,5 8 4 16 9 N 1008,7 20 0 0,0
20.05.2019 00:00:00 12,3 8,6 11,4 14,6 12,5 6 3 24 13 N 1008,8 20 0 0,0
19.05.2019 23:00:00 12,5 8,4 12,1 14,7 12,5 12 6 32 18 NNW 1008,6 19 0 0,0
19.05.2019 22:00:00 12,9 8,6 12,0 14,9 12,5 13 7 26 14 NNW 1008,1 41 0 0,0
19.05.2019 21:00:00 13,0 8,7 12,6 14,9 12,5 10 5 24 13 NW 1007,4 49 0 0,0
19.05.2019 20:00:00 13,7 8,7 13,6 15,0 12,5 14 8 31 17 NNW 1007,1 59 0 0,0
19.05.2019 19:00:00 14,4 8,6 14,4 15,0 12,5 11 6 25 14 NNW 1006,5 59 0 0,0
19.05.2019 18:00:00 13,8 8,8 14,2 15,0 12,5 16 8 35 19 NNW 1006,7 59 0 0,0
19.05.2019 17:00:00 14,7 8,6 15,4 14,8 12,5 18 10 33 18 NNW 1006,4 48 0 0,0
19.05.2019 16:00:00 15,4 9,1 16,9 14,5 12,5 14 8 27 14 N 1006,0 54 6 0,0
19.05.2019 15:00:00 14,8 8,9 16,0 14,3 12,5 15 8 28 15 N 1006,3 51 1 0,0
19.05.2019 14:00:00 14,2 8,6 15,0 14,1 12,5 16 9 29 16 NW 1006,5 58 0 0,0
19.05.2019 13:00:00 14,1 8,1 16,2 13,7 12,5 15 8 26 14 N 1006,4 32 7 0,0
19.05.2019 12:00:00 13,6 8,6 16,2 13,4 12,5 13 7 24 13 N 1006,7 23 0 0,0
19.05.2019 11:00:00 12,8 9,2 13,3 13,3 12,5 9 5 21 12 NNW 1007,0 20 0 0,0
19.05.2019 10:00:00 11,1 9,0 11,1 13,3 12,5 9 5 16 8 N 1007,4 20 0 0,0
19.05.2019 09:00:00 10,4 8,8 10,1 13,3 12,5 6 4 14 8 N 1007,5 28 0 0,0
19.05.2019 08:00:00 10,0 8,6 9,6 13,4 12,5 7 4 12 7 N 1007,4 31 0 0,0
19.05.2019 07:00:00 9,8 8,7 9,5 13,5 12,5 5 3 11 6 N 1007,4 18 0 0,2
19.05.2019 06:00:00 9,9 9,3 9,3 13,6 12,5 3 1 8 4 NW 1007,2 13 0 0,0
19.05.2019 05:00:00 9,9 9,3 9,7 13,7 12,5 3 2 9 5 WNW 1007,2 15 0 0,2
19.05.2019 04:00:00 10,1 9,5 9,8 13,9 12,5 6 3 12 7 W 1007,2 13 0 0,4
19.05.2019 03:00:00 10,3 9,5 9,9 14,0 12,5 4 2 9 5 ZW 1007,4 7 0 1,0
19.05.2019 02:00:00 10,5 9,6 10,0 14,1 12,5 6 3 13 7 WZW 1007,6 9 0 0,2
19.05.2019 01:00:00 10,7 9,8 10,2 14,3 12,5 6 3 9 5 WZW 1007,8 11 0 0,2
19.05.2019 00:00:00 11,0 10,1 10,4 14,4 12,4 4 2 8 4 W 1007,8 8 0 0,6
18.05.2019 23:00:00 11,4 10,1 10,4 14,5 12,5 4 2 6 3 W 1007,7 14 0 0,4
18.05.2019 22:00:00 11,6 9,8 10,7 14,6 12,5 5 3 8 5 WNW 1007,5 47 0 0,0
18.05.2019 21:00:00 12,3 10,0 11,4 14,6 12,5 5 3 8 4 NW 1006,9 29 0 0,0
18.05.2019 20:00:00 13,1 9,7 12,2 14,7 12,5 0 0 9 5 N 1006,3 20 0 0,4
18.05.2019 19:00:00 13,4 9,3 12,7 14,7 12,5 7 4 19 10 WNW 1006,0 36 0 0,2
18.05.2019 18:00:00 14,1 8,3 14,6 14,6 12,5 11 6 20 11 WNW 1005,5 60 0 0,0
18.05.2019 17:00:00 14,7 7,5 15,3 14,4 12,5 11 6 21 11 NW 1005,2 60 0 0,0
18.05.2019 16:00:00 15,2 7,5 17,4 14,1 12,5 11 6 21 11 N 1005,1 60 0 0,0
18.05.2019 15:00:00 15,4 8,4 18,0 13,8 12,5 13 7 21 11 NNO 1004,9 56 0 0,0
18.05.2019 14:00:00 14,3 7,8 12,9 13,6 12,5 9 5 13 7 ZO 1005,3 59 0 0,0
18.05.2019 13:00:00 12,6 8,9 11,2 13,4 12,5 8 5 18 10 OZO 1005,8 60 0 0,2
18.05.2019 12:00:00 13,5 7,5 11,1 13,0 12,4 16 9 38 20 W 1005,4 14 4 0,0
18.05.2019 11:00:00 14,4 7,4 17,7 12,7 12,5 16 9 29 15 Z 1005,0 58 29 0,0
18.05.2019 10:00:00 14,7 7,0 18,7 12,5 12,5 15 8 26 14 Z 1004,8 0,8 60 0,0
18.05.2019 09:00:00 13,3 7,3 14,1 12,5 12,5 11 6 19 10 Z 1004,8 36 60 0,0
18.05.2019 08:00:00 11,0 7,9 9,2 12,6 12,5 8 4 12 7 Z 1005,3 20 20 0,0
18.05.2019 07:00:00 9,3 6,7 7,7 12,7 12,4 4 2 10 6 ZZW 1005,5 33 0 0,0
18.05.2019 06:00:00 8,7 6,5 7,8 12,9 12,5 10 5 15 8 Z 1005,4 34 0 0,0
18.05.2019 05:00:00 8,8 6,6 8,1 13,0 12,4 8 5 13 7 Z 1005,8 34 0 0,0
18.05.2019 04:00:00 9,0 7,0 8,1 13,1 12,4 2 1 12 7 W 1006,1 25 0 0,0
18.05.2019 03:00:00 9,0 7,0 8,2 13,2 12,4 8 4 13 7 ZZO 1006,5 24 0 0,0
18.05.2019 02:00:00 9,1 6,9 8,5 13,4 12,4 8 5 17 9 Z 1006,8 24 0 0,0
18.05.2019 01:00:00 9,2 7,1 8,5 13,5 12,5 11 6 16 9 ZZO 1007,0 18 0 0,0
18.05.2019 00:00:00 9,6 7,0 8,9 13,7 12,4 8 5 17 9 ZZO 1007,0 20 0 0,0
17.05.2019 23:00:00 9,9 7,1 9,0 13,8 12,4 12 7 18 10 ZZO 1007,1 26 0 0,0
17.05.2019 22:00:00 9,7 7,1 9,1 13,9 12,4 12 7 17 9 Z 1007,1 27 0 0,0
17.05.2019 21:00:00 10,4 6,9 9,4 13,9 12,4 5 3 14 7 ZZO 1006,7 28 0 0,0
17.05.2019 20:00:00 11,3 7,4 10,8 13,9 12,4 8 4 14 8 ZO 1006,2 36 0 0,0
17.05.2019 19:00:00 11,7 7,6 11,5 13,8 12,4 9 5 14 7 Z 1006,3 48 0 0,0
17.05.2019 18:00:00 11,4 7,9 10,6 13,7 12,4 4 2 13 7 O 1006,4 41 0 0,2
17.05.2019 17:00:00 10,7 7,6 10,5 13,7 12,4 9 5 16 9 Z 1006,9 14 0 0,8
17.05.2019 16:00:00 10,6 6,9 9,6 13,8 12,4 10 5 25 14 ZZO 1007,1 24 0 0,2
17.05.2019 15:00:00 11,9 3,9 9,9 13,8 12,3 12 6 22 12 ZZW 1006,8 52 0 0,0
17.05.2019 14:00:00 11,2 5,5 10,0 13,8 12,4 12 7 22 12 ZZO 1006,7 25 0 0,0
17.05.2019 13:00:00 12,6 4,3 12,6 13,8 12,3 9 5 31 17 ZZO 1006,0 60 0 0,0
17.05.2019 12:00:00 12,9 4,1 13,3 13,8 12,3 25 13 42 23 Z 1005,9 49 0 0,0
17.05.2019 11:00:00 13,5 4,9 13,5 13,8 12,3 16 9 36 20 ZZW 1005,5 57 0 0,0
17.05.2019 10:00:00 12,9 5,1 12,6 13,9 12,3 10 5 29 16 ZZW 1004,8 58 0 0,0
17.05.2019 09:00:00 12,7 4,6 11,8 14,1 12,3 18 10 34 18 Z 1004,8 56 0 0,0
17.05.2019 08:00:00 11,8 3,5 10,3 14,2 12,3 10 5 17 9 Z 1004,6 60 0 0,0
17.05.2019 07:00:00 11,6 2,6 7,6 14,5 12,3 8 4 18 10 ZZW 1004,4 60 0 0,0
17.05.2019 06:00:00 9,9 4,1 7,3 14,7 12,3 6 3 19 11 Z 1005,0 60 0 0,0
17.05.2019 05:00:00 10,0 5,4 6,9 15,0 12,3 7 4 11 6 Z 1005,4 49 0 0,0
17.05.2019 04:00:00 8,9 6,2 6,9 15,2 12,3 0 0 5 3 N 1006,3 38 0 0,0
17.05.2019 03:00:00 9,4 5,9 7,0 15,5 12,3 4 2 6 3 W 1007,0 43 0 0,0
17.05.2019 02:00:00 9,7 6,2 7,6 15,8 12,3 3 1 5 3 NW 1007,7 43 0 0,0
17.05.2019 01:00:00 10,6 6,2 8,5 16,1 12,3 2 1 6 4 OZO 1008,2 43 0 0,0
17.05.2019 00:00:00 11,6 6,1 8,8 16,5 12,3 6 3 10 6 W 1008,5 45 0 0,0
16.05.2019 23:00:00 12,8 4,7 9,7 16,8 12,3 5 3 13 7 OZO 1008,5 59 0 0,0
16.05.2019 22:00:00 12,7 5,4 10,2 17,1 12,3 9 5 15 8 ONO 1008,4 55 0 0,0
16.05.2019 21:00:00 13,7 5,3 10,9 17,3 12,3 7 4 17 9 O 1008,4 60 7 0,0
16.05.2019 20:00:00 15,5 5,7 14,6 17,3 12,3 13 7 23 13 NO 1007,9 58 27 0,0
16.05.2019 19:00:00 16,9 5,8 17,4 17,1 12,3 7 4 24 13 NNO 1007,7 58 43 0,0
16.05.2019 18:00:00 18,0 5,6 22,3 16,6 12,3 10 6 26 14 N 1008,4 59 60 0,0
16.05.2019 17:00:00 18,2 5,7 21,8 16,0 12,3 10 6 23 12 WNW 1008,8 42 60 0,0
16.05.2019 16:00:00 17,9 6,4 22,6 15,2 12,3 8 5 20 11 N 1009,2 41 60 0,0
16.05.2019 15:00:00 16,3 5,3 21,8 14,3 12,3 11 6 27 15 NNO 1010,5 33 60 0,0
16.05.2019 14:00:00 15,3 4,3 22,2 13,4 12,3 7 4 22 12 NO 1011,4 35 60 0,0
16.05.2019 13:00:00 14,1 3,8 19,8 12,7 12,3 6 3 18 10 Z 1012,3 20 60 0,0
16.05.2019 12:00:00 13,5 3,6 19,1 12,1 12,3 5 3 17 9 W 1012,7 38 60 0,0
16.05.2019 11:00:00 12,2 2,6 18,8 11,7 12,3 9 5 18 10 NNW 1013,5 31 60 0,0
16.05.2019 10:00:00 10,4 2,5 15,6 11,6 12,2 8 4 16 9 N 1014,4 45 60 0,0
16.05.2019 09:00:00 8,5 1,9 10,9 11,6 12,2 9 5 19 11 N 1015,0 41 60 0,0
16.05.2019 08:00:00 7,2 3,1 3,4 11,9 12,2 3 1 5 3 ZO 1015,6 29 60 0,0
16.05.2019 07:00:00 2,0 0,4 -2,7 12,2 12,2 3 2 6 3 Z 1016,5 31 25 0,0
16.05.2019 06:00:00 0,9 -0,1 -3,1 12,6 12,2 2 1 5 3 ZW 1016,9 24 0 0,0
16.05.2019 05:00:00 1,9 0,1 -2,5 12,9 12,2 4 2 8 5 Z 1016,7 20 0 0,0
16.05.2019 04:00:00 1,4 -0,7 -2,4 13,3 12,2 6 3 9 5 ZO 1017,1 36 0 0,0
16.05.2019 03:00:00 2,7 1,4 -2,0 13,7 12,2 4 2 7 4 ZZO 1017,2 45 0 0,0
16.05.2019 02:00:00 3,3 1,0 -1,2 14,1 12,2 3 1 6 4 ZO 1017,3 48 0 0,0
16.05.2019 01:00:00 4,5 1,3 -0,1 14,4 12,2 3 1 8 4 ZZO 1017,8 57 0 0,0
16.05.2019 00:00:00 5,3 0,7 1,0 14,8 12,2 4 2 9 5 Z 1018,0 60 0 0,0
15.05.2019 23:00:00 9,1 1,5 4,8 15,2 12,2 5 3 14 8 NNW 1017,7 60 0 0,0
15.05.2019 22:00:00 9,5 1,1 5,8 15,5 12,2 10 6 20 11 NNO 1017,6 60 0 0,0
15.05.2019 21:00:00 12,2 1,2 10,7 15,7 12,2 16 9 38 21 NO 1016,9 60 41 0,0
15.05.2019 20:00:00 14,2 1,5 13,6 15,8 12,2 23 12 39 21 NNO 1016,2 59 46 0,0
15.05.2019 19:00:00 14,9 2,4 14,6 15,8 12,2 24 13 40 21 NNO 1015,8 54 34 0,0
15.05.2019 18:00:00 14,7 1,9 14,8 15,6 12,2 26 14 41 22 NNO 1015,8 56 16 0,0
15.05.2019 17:00:00 14,9 2,4 15,5 15,2 12,2 21 12 48 26 NNO 1015,7 42 19 0,0
15.05.2019 16:00:00 15,0 1,1 17,4 14,6 12,2 21 11 42 23 NNO 1016,1 60 47 0,0
15.05.2019 15:00:00 15,5 1,9 16,8 13,9 12,2 25 14 43 23 NNO 1015,9 60 49 0,0
15.05.2019 14:00:00 14,8 1,7 17,3 13,2 12,2 24 13 41 22 NO 1016,3 60 57 0,0
15.05.2019 13:00:00 14,3 1,5 18,2 12,6 12,2 22 12 44 24 NO 1016,5 50 60 0,0
15.05.2019 12:00:00 13,8 0,4 17,3 12,1 12,2 24 13 41 22 NNO 1016,9 52 60 0,0
15.05.2019 11:00:00 11,6 0,7 16,3 11,9 12,2 24 13 43 23 N 1017,2 44 60 0,0
15.05.2019 10:00:00 9,8 0,1 13,4 11,8 12,2 21 11 40 22 N 1018,1 48 60 0,0
15.05.2019 09:00:00 8,1 -0,7 9,5 11,9 12,2 26 14 42 23 N 1018,5 60 60 0,0
15.05.2019 08:00:00 6,7 -0,1 5,9 12,2 12,2 13 7 25 13 NNW 1019,0 60 60 0,0
15.05.2019 07:00:00 4,7 -0,3 3,0 12,5 12,2 10 6 32 17 NNO 1019,3 40 23 0,0
15.05.2019 06:00:00 5,6 -0,5 4,4 12,8 12,1 19 10 39 21 N 1018,9 60 0 0,0
15.05.2019 05:00:00 5,9 -0,2 2,0 13,2 12,2 21 11 33 18 N 1019,5 50 0 0,0
15.05.2019 04:00:00 5,7 0,0 3,4 13,5 12,1 3 2 15 8 W 1019,7 60 0 0,0
15.05.2019 03:00:00 6,6 0,5 3,3 13,9 12,2 6 4 22 12 WNW 1019,9 60 0 0,0
15.05.2019 02:00:00 6,7 0,8 1,5 14,3 12,2 8 4 19 10 NNW 1020,6 60 0 0,0
15.05.2019 01:00:00 7,6 1,0 4,8 14,7 12,2 5 3 21 11 WNW 1020,9 60 0 0,0
15.05.2019 00:00:00 8,8 1,2 3,1 15,2 12,2 11 6 21 11 NNW 1020,8 60 0 0,0
14.05.2019 23:00:00 9,1 0,0 4,0 15,6 12,1 8 4 19 10 N 1020,8 60 0 0,0
14.05.2019 22:00:00 10,4 -0,7 6,4 16,0 12,2 11 6 31 17 NNO 1020,7 60 0 0,0
14.05.2019 21:00:00 12,7 -0,9 10,7 16,2 12,2 16 8 50 27 NNO 1020,1 60 40 0,0
14.05.2019 20:00:00 14,8 -1,8 14,6 16,3 12,2 26 14 49 26 NO 1019,8 51 60 0,0
14.05.2019 19:00:00 16,3 -0,4 17,4 16,1 12,1 30 16 49 26 NO 1019,3 36 60 0,0
14.05.2019 18:00:00 17,9 -0,4 19,6 15,7 12,1 29 16 48 26 NO 1018,6 41 60 0,0
14.05.2019 17:00:00 18,5 -1,9 21,5 15,2 12,1 29 16 45 24 NO 1018,5 40 60 0,0
14.05.2019 16:00:00 18,5 0,6 21,7 14,5 12,2 29 16 54 29 NO 1019,2 41 60 0,0
14.05.2019 15:00:00 18,3 3,7 21,5 13,7 12,2 23 12 53 28 NNO 1019,6 20 60 0,0
14.05.2019 14:00:00 17,9 1,8 22,5 12,9 12,2 17 9 36 20 NNO 1020,0 60 60 0,0
14.05.2019 13:00:00 16,8 2,0 21,1 12,2 12,1 19 10 35 19 N 1020,8 60 60 0,0
14.05.2019 12:00:00 14,5 2,7 19,8 11,6 12,2 16 9 34 18 NNW 1021,7 60 60 0,0
14.05.2019 11:00:00 12,6 1,0 17,4 11,2 12,2 16 9 30 16 NNW 1022,7 20 60 0,0
14.05.2019 10:00:00 11,4 0,8 15,0 11,1 12,2 16 9 30 16 NNW 1023,8 60 60 0,0
14.05.2019 09:00:00 9,6 1,5 10,3 11,2 12,2 16 9 29 15 N 1024,4 60 60 0,0
14.05.2019 08:00:00 7,3 1,6 5,0 11,5 12,2 5 3 10 5 NNO 1025,1 52 60 0,0
14.05.2019 07:00:00 4,3 0,8 -2,5 11,8 12,2 4 2 10 5 O 1025,7 58 22 0,0
14.05.2019 06:00:00 2,1 -0,7 -2,3 12,2 12,1 3 2 7 4 NNO 1026,3 55 0 0,0

tt = temperatuur
td = dauwpunt
tt 5cm = temperatuur 5cm
tt -20cm = temperatuur -20cm
tt -100cm = temperatuur -100cm
ff = windsnelheid
fx = windstoten
dd = windrichting
ppp = luchtdruk
vv = zicht
sd = Zonneschijnduur
rr = neerslag

Weerstations in de omgeving